Regional Weather Roundup
Issued by NWS

Home | Current Version | Previous Version | Graphics & Text | Print | Product List | Glossary Off
Versions: 1 2 3 4 5 6 7 8 9 10 11 12 13 14 15 16 17 18 19 20 21 22 23 24 25 26 27 28 29 30 31 32 33 34 35 36 37 38 39 40 41 42 43 44 45 46 47 48 49 50

000
ASUS43 KMKX 210700
RWRWI

WISCONSIN REGIONAL WEATHER ROUNDUP
NATIONAL WEATHER SERVICE MILWAUKEE/SULLIVAN WI
200 AM CDT SAT OCT 21 2017

NOTE: "FAIR" INDICATES FEW OR NO CLOUDS BELOW 12,000 FEET WITH NO
SIGNIFICANT WEATHER AND/OR OBSTRUCTIONS TO VISIBILITY.

WIZ001-002-006>008-014>016-023>028-210800-
NORTHWEST WISCONSIN

CITY           SKY/WX    TMP DP  RH WIND       PRES   REMARKS
SUPERIOR ARPT  CLOUDY    64  48  54 S10       29.71S
ASHLAND        CLOUDY    66  44  45 S15G25    29.76S
HAYWARD        LGT RAIN  64  45  49 S15G21    29.79S
SIREN          CLOUDY    64  48  56 S10G21    29.75S
CUMBERLAND     LGT RAIN  57  48  72 S6        29.79F
RICE LAKE      LGT RAIN  61  49  65 SE7       29.81F
CHETEK         CLOUDY    63  49  59 S7        29.81F
LADYSMITH      CLOUDY    62  44  52 SE7       29.85F
EAU CLAIRE     NOT AVBL
MENOMONIE      CLOUDY    64  48  54 S16       29.80F
NEW RICHMOND   CLOUDY    60  50  69 S13G18    29.77S
OSCEOLA        CLOUDY    63  51  65 S12       29.78S
$$

WIZ003>005-009-010-017-018-210800-
NORTH CENTRAL WISCONSIN

CITY           SKY/WX    TMP DP  RH WIND       PRES   REMARKS
MANITOWISH WTR PTCLDY    61  43  52 S9        29.86S
ARBOR VITAE    CLOUDY    62  45  53 S10G18    29.88R
WOODRUFF       CLOUDY    62  45  53 S10G18    29.88R
RHINELANDER    PTCLDY    63  45  51 S13G21    29.90S
EAGLE RIVER    CLOUDY    61  41  49 S8        29.89R
LAND O LAKES   PTCLDY    61  43  51 S5        29.90S
PHILLIPS       CLOUDY    62  44  52 S10G16    29.85S
TOMAHAWK       CLOUDY    58  45  62 CALM      29.90S
MEDFORD        CLOUDY    59  45  60 S7        29.88S
MERRILL        CLOUDY    62  46  55 S5        29.91S
$$

WIZ029-030-035-036-043>047-210800-
CENTRAL WISCONSIN

CITY           SKY/WX    TMP DP  RH WIND       PRES   REMARKS
WAUSAU         CLOUDY    62  45  53 S8        29.90S
MOSINEE        PTCLDY    59  45  58 S8        29.93R
MARSHFIELD     CLOUDY    63  44  50 S12       29.89S
STEVENS POINT  CLOUDY    61  44  52 S9        29.93S
WAUPACA        CLOUDY    64  47  54 SE6       29.95S
WAUTOMA        CLOUDY    65  46  50 S10       29.95R
WISC RAPIDS    CLOUDY    65  45  48 S12       29.93R
CAMP DOUGLAS   NOT AVBL
$$

WIZ011>013-019>022-031-037>040-048>050-210800-
NORTHEAST WISCONSIN

CITY           SKY/WX    TMP DP  RH WIND       PRES   REMARKS
ANTIGO         CLOUDY    53  46  77 S8        29.94S
SHAWANO        CLOUDY    65  47  51 S7        29.94S
OCONTO         MOCLDY    56  51  84 SE3       29.95R
STURGEON BAY   MOCLDY    59  50  72 S10       29.98R
GREEN BAY      CLOUDY    65  48  54 S10       29.96F
MANITOWOC      CLOUDY    53  50  89 CALM      30.00S
APPLETON       CLOUDY    63  43  48 S12       29.95F
CLINTONVILLE   NOT AVBL
OSHKOSH        MOCLDY    61  48  62 S12       29.96S
$$

WIZ032>034-041-042-053>061-210800-
SOUTHWEST WISCONSIN

CITY           SKY/WX    TMP DP  RH WIND       PRES   REMARKS
LA CROSSE      CLOUDY    67  49  52 S20       29.85F
SPARTA         CLOUDY    65  47  51 S9G17     29.90S
VIROQUA        CLOUDY    62  48  60 S13       29.92R
BOSCOBEL       MOCLDY    67  47  48 S9        29.93R
PRAIRIE DU CHI PTCLDY    65  46  49 SE6       29.91R
PLATTEVILLE    PTCLDY    62  49  62 S10       29.96S
$$

WIZ056-057-062-063-064-067-068-210800-
SOUTH CENTRAL WISCONSIN

CITY           SKY/WX    TMP DP  RH WIND       PRES   REMARKS
REEDSBURG      CLOUDY    64  46  51 S9        29.94R
BARABOO/DELLS  CLOUDY    64  44  47 S10G18    29.95R
LONE ROCK      NOT AVBL
MINERAL POINT  CLOUDY    63  46  55 S10       29.96S
MADISON        CLOUDY    63  47  55 S9        29.98R
MIDDLETON      CLOUDY    64  46  52 S14G23    29.97S
WATERTOWN      MOCLDY    62  48  60 S9        30.00S
MONROE         CLOUDY    61  46  59 S13       29.99S
JANESVILLE     CLOUDY    64  45  48 S10       30.00S
$$

WIZ051-052-058>065-066-070>072-210800-
SOUTHEAST WISCONSIN

CITY           SKY/WX    TMP DP  RH WIND       PRES   REMARKS
MILWAUKEE      CLOUDY    65  48  54 SW13      30.03R
WAUKESHA       MOCLDY    61  45  55 S8        30.03S
MILWAUKEE/TIMM CLOUDY    63  43  48 S8        30.02S
RACINE         CLOUDY    66  48  52 S10G21    30.05R
BURLINGTON     CLOUDY    63  49  61 S14G21    30.02S
KENOSHA        CLOUDY    66  47  50 S14G22    30.04R
FOND DU LAC    CLOUDY    65  44  46 S10G20    29.97F
SHEBOYGAN      CLOUDY    62  49  62 S10       30.00R
WEST BEND      CLOUDY    63  45  51 S7        30.01S
JUNEAU         CLOUDY    60  46  59 S7        30.00F
$$

LSZ147-162-210800-
LAKE SUPERIOR

STATION/POSITION TIME  TEMP    WIND        PRES    WAVE
                       AIR SEA DIR/SP/G            HT/PER
                 (UTC) (F)     (DEG/KT/KT) (MB)    (FT/S)
W MID LAKE BUOY  0550   59 52              1008.2F   2/ 5
DEVILS ISLAND    0600   66     190/ 10/ 15 1007.4F
SAXON HARBOR     0630   68     190/ 12/ 22 1007.1F
$$

LMZ867-665-643>646-210800-
LAKE MICHIGAN

STATION/POSITION TIME  TEMP    WIND        PRES    WAVE
                       AIR SEA DIR/SP/G            HT/PER
                 (UTC) (F)     (DEG/KT/KT) (MB)    (FT/S)
S GREEN BAY BUOY 0630   62 58  180/ 14/ 16 1014.1R
N MID LAKE BUOY  0550   62 58  190/ 19/ 21 1015.4R   4/ 6
NORTHPORT PIER   0640   59     150/  5/ 11 1014.6S
KEWAUNEE LAKESHO 0630   54     180/  7/  8 1014.6R
SHEBOYGAN LAKESH 0600   58     180/ 15/ 16 1015.4S
PORT WASHINGTON  0640   59     190/  5/  6 1016.9R
ATWATER BUOY     0509   59 53  160/ 10/ 12 1016.4R
MILWAUKEE LAKESH 0630   65     200/  9/ 11   N/A
S MID LAKE BUOY  0550   63 61  180/ 16/ 19 1017.4F   3/ 4
KENOSHA   LAKESH 0600   67     200/  9/ 16 1016.6
$$

TC  - TEMPERATURE IN CELSIUS
VSB - VISIBILITY IN STATUTE MILES
WCI - WIND CHILL INDEX
HX  - HEAT INDEX




USA.gov is the U.S. government's official web portal to all federal, state and local government web resources and services.